Location: Cisewo
(53.3833°N, 14.9000°E)
Time: 11:55:43
(UTC+00:00)

Cosmos 1833 - Pass Details

Date: 18 April 2021
Orbit: 835 x 864 km, 70.9° (Epoch: 14 May)

Event Time Altitude Azimuth Distance (km) Brightness Sun altitude
Rises 19:02:49 0° 215° (SW) 3,376 7.4 -8.3°
Reaches altitude 10° 19:05:14 10° 216° (SW) 2,447 6.7 -8.6°
Maximum altitude 19:10:52 78° 303° (WNW) 865 4.4 -9.3°
Drops below altitude 10° 19:16:34 10° 31° (NNE) 2,478 6.7 -10.1°
Sets 19:19:02 0° 33° (NNE) 3,421 7.4 -10.4°
